Time,TemperatureF,DewpointF,PressureIn,WindDirection,WindDirectionDegrees,WindSpeedMPH,WindSpeedGustMPH,Humidity,HourlyPrecipIn,Conditions,Clouds,dailyrainin,SoftwareType,DateUTC
2013-12-05 00:01:00,53.6,51.9,29.34,SW,216,6.3,7.6,94,0.00,,,0.00,VWS V14.00,2013-12-05 05:01:00,
2013-12-05 00:03:00,53.6,51.9,29.34,SW,221,5.4,6.3,94,0.00,,,0.00,VWS V14.00,2013-12-05 05:03:00,
2013-12-05 00:04:00,53.6,51.9,29.34,SSW,209,7.2,8.7,94,0.00,,,0.00,VWS V14.00,2013-12-05 05:04:00,
2013-12-05 00:06:00,53.6,51.9,29.34,SW,223,5.8,7.6,94,0.00,,,0.00,VWS V14.00,2013-12-05 05:06:00,
2013-12-05 00:12:00,53.4,52.0,29.34,SSW,208,5.8,5.8,95,0.00,,,0.00,VWS V14.00,2013-12-05 05:12:00,
2013-12-05 00:13:00,53.6,52.2,29.34,SW,219,6.3,6.3,95,0.00,,,0.00,VWS V14.00,2013-12-05 05:13:00,
2013-12-05 00:18:00,53.6,52.5,29.34,SW,230,5.8,8.1,96,0.00,,,0.00,VWS V14.00,2013-12-05 05:18:00,
2013-12-05 00:23:00,53.6,52.5,29.34,SW,226,6.3,8.1,96,0.00,,,0.00,VWS V14.00,2013-12-05 05:23:00,
2013-12-05 00:29:00,53.8,53.0,29.36,SW,228,8.3,10.5,97,0.00,,,0.00,VWS V14.00,2013-12-05 05:29:00,
2013-12-05 00:30:00,53.8,53.0,29.36,SW,215,7.6,8.3,97,0.00,,,0.00,VWS V14.00,2013-12-05 05:30:00,
2013-12-05 00:36:00,54.0,53.1,29.36,SW,225,7.2,10.5,97,0.00,,,0.00,VWS V14.00,2013-12-05 05:36:00,
2013-12-05 00:41:00,54.1,53.3,29.36,SSW,196,14.1,14.1,97,0.00,,,0.00,VWS V14.00,2013-12-05 05:41:00,
2013-12-05 00:47:00,54.3,53.5,29.36,SSW,194,10.1,12.8,97,0.00,,,0.00,VWS V14.00,2013-12-05 05:47:00,
2013-12-05 00:52:00,54.3,53.2,29.36,SSW,212,17.0,17.0,96,0.00,,,0.00,VWS V14.00,2013-12-05 05:52:00,
2013-12-05 00:57:00,54.3,52.9,29.36,SW,217,8.3,13.2,95,0.00,,,0.00,VWS V14.00,2013-12-05 05:57:00,
2013-12-05 01:03:00,54.3,52.6,29.36,WSW,242,8.7,12.3,94,0.00,,,0.00,VWS V14.00,2013-12-05 06:03:00,
2013-12-05 01:09:00,54.1,52.2,29.36,SSW,204,5.8,10.1,93,0.00,,,0.00,VWS V14.00,2013-12-05 06:09:00,
2013-12-05 01:15:00,53.6,51.6,29.36,WSW,242,5.4,15.0,93,0.00,,,0.00,VWS V14.00,2013-12-05 06:15:00,
2013-12-05 01:20:00,53.1,50.8,29.36,SW,220,8.1,8.1,92,0.00,,,0.00,VWS V14.00,2013-12-05 06:20:00,
2013-12-05 01:26:00,52.2,49.9,29.39,WSW,239,13.2,13.2,92,0.00,,,0.00,VWS V14.00,2013-12-05 06:26:00,
2013-12-05 01:31:00,51.6,49.1,29.39,WSW,241,11.0,14.1,91,0.00,,,0.00,VWS V14.00,2013-12-05 06:31:00,
2013-12-05 01:36:00,51.1,48.0,29.39,WSW,246,5.8,12.8,89,0.00,,,0.00,VWS V14.00,2013-12-05 06:36:00,
2013-12-05 01:41:00,50.4,47.0,29.39,WSW,245,10.5,10.5,88,0.00,,,0.00,VWS V14.00,2013-12-05 06:41:00,
2013-12-05 01:47:00,49.8,46.4,29.39,SW,220,8.1,8.1,88,0.00,,,0.00,VWS V14.00,2013-12-05 06:47:00,
2013-12-05 01:52:00,49.3,45.6,29.39,WSW,246,5.4,9.2,87,0.00,,,0.00,VWS V14.00,2013-12-05 06:52:00,
2013-12-05 01:58:00,48.7,44.8,29.39,SSW,205,8.1,9.2,86,0.00,,,0.00,VWS V14.00,2013-12-05 06:58:00,
2013-12-05 02:04:00,48.2,43.9,29.39,SW,218,9.2,11.0,85,0.00,,,0.00,VWS V14.00,2013-12-05 07:04:00,
2013-12-05 02:09:00,47.8,42.9,29.39,SSW,211,8.7,10.5,83,0.00,,,0.00,VWS V14.00,2013-12-05 07:09:00,
2013-12-05 02:15:00,47.5,42.6,29.42,SW,224,13.2,13.6,83,0.00,,,0.00,VWS V14.00,2013-12-05 07:15:00,
2013-12-05 02:20:00,47.1,42.2,29.42,SW,215,8.1,11.0,83,0.00,,,0.00,VWS V14.00,2013-12-05 07:20:00,
2013-12-05 02:25:00,46.9,42.0,29.42,West,272,5.8,11.0,83,0.00,,,0.00,VWS V14.00,2013-12-05 07:25:00,
2013-12-05 02:31:00,46.6,42.0,29.42,SW,220,8.3,9.2,84,0.00,,,0.00,VWS V14.00,2013-12-05 07:31:00,
2013-12-05 02:36:00,46.4,41.8,29.42,SSW,197,15.4,15.4,84,0.00,,,0.00,VWS V14.00,2013-12-05 07:36:00,
2013-12-05 02:42:00,46.0,42.1,29.42,SSW,204,10.1,10.1,86,0.00,,,0.00,VWS V14.00,2013-12-05 07:42:00,
2013-12-05 02:47:00,45.9,42.2,29.42,SW,229,8.7,12.3,87,0.00,,,0.00,VWS V14.00,2013-12-05 07:47:00,
2013-12-05 02:53:00,45.5,41.9,29.42,SW,225,10.5,10.5,87,0.00,,,0.00,VWS V14.00,2013-12-05 07:53:00,
2013-12-05 02:58:00,45.3,42.0,29.42,SSW,206,8.7,8.7,88,0.00,,,0.00,VWS V14.00,2013-12-05 07:58:00,
2013-12-05 03:03:00,45.1,41.8,29.42,West,269,5.4,5.8,88,0.00,,,0.00,VWS V14.00,2013-12-05 08:03:00,
2013-12-05 03:08:00,44.8,41.5,29.42,South,172,9.6,11.0,88,0.00,,,0.00,VWS V14.00,2013-12-05 08:08:00,
2013-12-05 03:14:00,44.6,41.3,29.42,SSW,209,10.5,16.8,88,0.00,,,0.00,VWS V14.00,2013-12-05 08:14:00,
2013-12-05 03:19:00,44.2,41.2,29.42,SSW,213,5.4,6.7,89,0.00,,,0.00,VWS V14.00,2013-12-05 08:19:00,
2013-12-05 03:25:00,44.1,41.0,29.45,West,262,9.6,9.6,89,0.00,,,0.00,VWS V14.00,2013-12-05 08:25:00,
2013-12-05 03:31:00,43.9,41.1,29.45,SSW,208,8.7,8.7,90,0.00,,,0.00,VWS V14.00,2013-12-05 08:31:00,
2013-12-05 03:36:00,43.7,41.0,29.45,SW,230,6.3,8.3,90,0.00,,,0.00,VWS V14.00,2013-12-05 08:36:00,
2013-12-05 03:42:00,43.5,40.8,29.45,West,269,9.2,12.8,90,0.00,,,0.00,VWS V14.00,2013-12-05 08:42:00,
2013-12-05 03:47:00,43.2,39.8,29.45,WSW,255,11.9,11.9,88,0.00,,,0.00,VWS V14.00,2013-12-05 08:47:00,
2013-12-05 03:52:00,43.0,39.7,29.45,WSW,257,5.8,6.3,88,0.00,,,0.00,VWS V14.00,2013-12-05 08:52:00,
2013-12-05 03:57:00,42.8,39.5,29.45,SW,225,4.9,7.6,88,0.00,,,0.00,VWS V14.00,2013-12-05 08:57:00,
2013-12-05 04:02:00,42.8,39.5,29.45,SW,215,6.3,12.8,88,0.00,,,0.00,VWS V14.00,2013-12-05 09:02:00,
2013-12-05 04:07:00,42.6,39.6,29.45,SW,214,5.8,12.8,89,0.00,,,0.00,VWS V14.00,2013-12-05 09:07:00,
2013-12-05 04:12:00,42.4,39.4,29.45,SSW,213,11.0,11.0,89,0.00,,,0.00,VWS V14.00,2013-12-05 09:12:00,
2013-12-05 04:17:00,42.1,39.1,29.45,SW,219,3.1,11.0,89,0.00,,,0.00,VWS V14.00,2013-12-05 09:17:00,
2013-12-05 04:23:00,41.9,38.6,29.45,SW,220,8.3,8.7,88,0.00,,,0.00,VWS V14.00,2013-12-05 09:23:00,
2013-12-05 04:28:00,41.7,38.4,29.45,WSW,253,3.1,4.9,88,0.00,,,0.00,VWS V14.00,2013-12-05 09:28:00,
2013-12-05 04:33:00,41.5,38.3,29.45,WSW,250,8.1,8.3,88,0.00,,,0.00,VWS V14.00,2013-12-05 09:33:00,
2013-12-05 04:39:00,41.4,38.1,29.45,SSW,211,5.8,15.0,88,0.00,,,0.00,VWS V14.00,2013-12-05 09:39:00,
2013-12-05 04:45:00,41.2,37.9,29.48,SSW,207,12.3,12.3,88,0.00,,,0.00,VWS V14.00,2013-12-05 09:45:00,
2013-12-05 04:50:00,41.0,37.7,29.48,WSW,243,5.8,10.5,88,0.00,,,0.00,VWS V14.00,2013-12-05 09:50:00,
2013-12-05 04:56:00,40.6,37.4,29.48,West,264,13.2,13.2,88,0.00,,,0.00,VWS V14.00,2013-12-05 09:56:00,
2013-12-05 05:01:00,40.5,37.2,29.48,WSW,249,8.1,9.6,88,0.00,,,0.00,VWS V14.00,2013-12-05 10:01:00,
2013-12-05 05:06:00,40.3,37.3,29.48,South,191,12.8,12.8,89,0.00,,,0.00,VWS V14.00,2013-12-05 10:06:00,
2013-12-05 05:11:00,39.9,37.0,29.48,West,269,8.1,8.1,89,0.00,,,0.00,VWS V14.00,2013-12-05 10:11:00,
2013-12-05 05:16:00,39.7,36.8,29.48,SW,236,9.6,9.6,89,0.00,,,0.00,VWS V14.00,2013-12-05 10:16:00,
2013-12-05 05:22:00,39.4,36.1,29.48,WNW,290,8.7,8.7,88,0.00,,,0.00,VWS V14.00,2013-12-05 10:22:00,
2013-12-05 05:28:00,39.2,36.0,29.51,SW,227,3.6,8.7,88,0.00,,,0.00,VWS V14.00,2013-12-05 10:28:00,
2013-12-05 05:34:00,39.0,35.8,29.51,West,267,11.0,11.0,88,0.00,,,0.00,VWS V14.00,2013-12-05 10:34:00,
2013-12-05 05:39:00,38.8,35.6,29.51,SW,217,10.5,10.5,88,0.00,,,0.00,VWS V14.00,2013-12-05 10:39:00,
2013-12-05 05:44:00,38.7,35.4,29.51,SSW,211,6.3,11.0,88,0.00,,,0.00,VWS V14.00,2013-12-05 10:44:00,
2013-12-05 05:49:00,38.7,35.4,29.51,SW,226,5.4,9.6,88,0.00,,,0.00,VWS V14.00,2013-12-05 10:49:00,
2013-12-05 05:55:00,38.5,35.0,29.54,West,281,5.8,12.8,87,0.00,,,0.00,VWS V14.00,2013-12-05 10:55:00,
2013-12-05 06:01:00,38.3,34.8,29.54,SW,215,10.1,10.1,87,0.00,,,0.00,VWS V14.00,2013-12-05 11:01:00,
2013-12-05 06:06:00,38.3,34.8,29.54,West,261,10.1,10.1,87,0.00,,,0.00,VWS V14.00,2013-12-05 11:06:00,
2013-12-05 06:11:00,38.1,34.6,29.51,SW,228,7.6,7.6,87,0.00,,,0.00,VWS V14.00,2013-12-05 11:11:00,
2013-12-05 06:16:00,37.9,34.4,29.51,West,266,8.3,13.6,87,0.00,,,0.00,VWS V14.00,2013-12-05 11:16:00,
2013-12-05 06:22:00,37.9,34.4,29.51,SSW,213,7.6,7.6,87,0.00,,,0.00,VWS V14.00,2013-12-05 11:22:00,
2013-12-05 06:27:00,37.8,34.0,29.54,SSW,202,8.1,10.1,86,0.00,,,0.00,VWS V14.00,2013-12-05 11:27:00,
2013-12-05 06:33:00,37.6,33.8,29.54,SW,222,6.3,7.6,86,0.00,,,0.00,VWS V14.00,2013-12-05 11:33:00,
2013-12-05 06:38:00,37.6,33.8,29.54,WSW,239,4.0,9.2,86,0.00,,,0.00,VWS V14.00,2013-12-05 11:38:00,
2013-12-05 06:44:00,37.4,33.3,29.54,West,263,5.8,8.3,85,0.00,,,0.00,VWS V14.00,2013-12-05 11:44:00,
2013-12-05 06:49:00,37.2,33.1,29.54,SW,236,12.8,12.8,85,0.00,,,0.00,VWS V14.00,2013-12-05 11:49:00,
2013-12-05 06:55:00,37.0,32.7,29.54,West,271,6.3,10.5,84,0.00,,,0.00,VWS V14.00,2013-12-05 11:55:00,
2013-12-05 07:01:00,36.9,32.2,29.54,SW,217,10.5,10.5,83,0.00,,,0.00,VWS V14.00,2013-12-05 12:01:00,
2013-12-05 07:07:00,36.9,32.2,29.54,SW,225,8.3,10.1,83,0.00,,,0.00,VWS V14.00,2013-12-05 12:07:00,
2013-12-05 07:12:00,36.7,32.3,29.54,SW,219,5.4,5.8,84,0.00,,,0.00,VWS V14.00,2013-12-05 12:12:00,
2013-12-05 07:18:00,36.7,32.3,29.54,SW,236,3.6,5.8,84,0.00,,,0.00,VWS V14.00,2013-12-05 12:18:00,
2013-12-05 07:23:00,36.7,32.6,29.54,SW,214,5.8,8.1,85,0.00,,,0.00,VWS V14.00,2013-12-05 12:23:00,
2013-12-05 07:29:00,36.5,32.4,29.54,West,263,6.3,11.0,85,0.00,,,0.00,VWS V14.00,2013-12-05 12:29:00,
2013-12-05 07:34:00,36.5,32.1,29.54,SW,232,5.8,8.1,84,0.00,,,0.00,VWS V14.00,2013-12-05 12:34:00,
2013-12-05 07:39:00,36.3,32.0,29.54,SW,231,5.8,8.7,84,0.00,,,0.00,VWS V14.00,2013-12-05 12:39:00,
2013-12-05 07:44:00,36.3,32.0,29.54,South,190,11.0,11.0,84,0.00,,,0.00,VWS V14.00,2013-12-05 12:44:00,
2013-12-05 07:49:00,36.1,31.8,29.54,WSW,241,5.8,8.7,84,0.00,,,0.00,VWS V14.00,2013-12-05 12:49:00,
2013-12-05 07:54:00,36.1,31.5,29.54,WSW,251,5.8,8.7,83,0.00,,,0.00,VWS V14.00,2013-12-05 12:54:00,
2013-12-05 07:59:00,36.1,31.8,29.57,WSW,255,7.6,13.2,84,0.00,,,0.00,VWS V14.00,2013-12-05 12:59:00,
2013-12-05 08:05:00,36.0,31.6,29.57,WSW,241,12.8,14.5,84,0.00,,,0.00,VWS V14.00,2013-12-05 13:05:00,
2013-12-05 08:11:00,36.0,31.6,29.57,SW,219,7.6,8.7,84,0.00,,,0.00,VWS V14.00,2013-12-05 13:11:00,
2013-12-05 08:16:00,35.8,31.4,29.57,SSW,205,6.3,8.1,84,0.00,,,0.00,VWS V14.00,2013-12-05 13:16:00,
2013-12-05 08:22:00,35.8,31.1,29.57,SW,216,12.3,13.2,83,0.00,,,0.00,VWS V14.00,2013-12-05 13:22:00,
2013-12-05 08:27:00,35.6,30.7,29.57,NNW,345,5.4,5.4,82,0.00,,,0.00,VWS V14.00,2013-12-05 13:27:00,
2013-12-05 08:32:00,35.6,30.7,29.57,West,270,8.1,12.3,82,0.00,,,0.00,VWS V14.00,2013-12-05 13:32:00,
2013-12-05 08:38:00,35.6,30.7,29.57,WSW,240,8.3,11.0,82,0.00,,,0.00,VWS V14.00,2013-12-05 13:38:00,
2013-12-05 08:43:00,35.6,30.4,29.60,SW,220,8.3,8.3,81,0.00,,,0.00,VWS V14.00,2013-12-05 13:43:00,
2013-12-05 08:48:00,35.6,30.4,29.60,SW,224,6.3,10.5,81,0.00,,,0.00,VWS V14.00,2013-12-05 13:48:00,
2013-12-05 08:54:00,35.6,30.4,29.60,West,265,8.7,17.0,81,0.00,,,0.00,VWS V14.00,2013-12-05 13:54:00,
2013-12-05 08:59:00,35.6,29.7,29.60,SW,216,5.8,7.6,79,0.00,,,0.00,VWS V14.00,2013-12-05 13:59:00,
2013-12-05 09:05:00,35.6,30.0,29.60,WSW,254,11.4,11.4,80,0.00,,,0.00,VWS V14.00,2013-12-05 14:05:00,
2013-12-05 09:10:00,35.8,30.2,29.63,SSW,197,10.1,10.1,80,0.00,,,0.00,VWS V14.00,2013-12-05 14:10:00,
2013-12-05 09:15:00,35.8,29.6,29.63,SW,235,10.5,10.5,78,0.00,,,0.00,VWS V14.00,2013-12-05 14:15:00,
2013-12-05 09:21:00,35.6,29.4,29.63,West,268,8.3,15.0,78,0.00,,,0.00,VWS V14.00,2013-12-05 14:21:00,
2013-12-05 09:26:00,35.6,29.1,29.63,West,279,8.7,8.7,77,0.00,,,0.00,VWS V14.00,2013-12-05 14:26:00,
2013-12-05 09:31:00,35.6,29.1,29.63,WSW,253,11.0,11.0,77,0.00,,,0.00,VWS V14.00,2013-12-05 14:31:00,
2013-12-05 09:36:00,35.6,28.8,29.63,WSW,258,7.6,8.3,76,0.00,,,0.00,VWS V14.00,2013-12-05 14:36:00,
2013-12-05 09:41:00,35.6,28.8,29.63,West,270,5.8,6.3,76,0.00,,,0.00,VWS V14.00,2013-12-05 14:41:00,
2013-12-05 09:47:00,35.6,28.8,29.63,SW,214,12.3,12.3,76,0.00,,,0.00,VWS V14.00,2013-12-05 14:47:00,
2013-12-05 09:53:00,35.4,28.9,29.63,SSW,211,10.5,10.5,77,0.00,,,0.00,VWS V14.00,2013-12-05 14:53:00,
2013-12-05 09:59:00,35.4,28.6,29.63,West,270,8.1,10.5,76,0.00,,,0.00,VWS V14.00,2013-12-05 14:59:00,
2013-12-05 10:04:00,35.1,28.0,29.63,SSW,211,8.1,8.3,75,0.00,,,0.00,VWS V14.00,2013-12-05 15:04:00,
2013-12-05 10:09:00,35.1,28.0,29.66,WNW,291,8.1,10.1,75,0.00,,,0.00,VWS V14.00,2013-12-05 15:09:00,
2013-12-05 10:15:00,35.1,28.0,29.66,WSW,237,10.1,14.1,75,0.00,,,0.00,VWS V14.00,2013-12-05 15:15:00,
2013-12-05 10:21:00,34.9,27.8,29.66,SW,222,8.7,8.7,75,0.00,,,0.00,VWS V14.00,2013-12-05 15:21:00,
2013-12-05 10:26:00,34.9,27.8,29.66,West,262,4.9,13.6,75,0.00,,,0.00,VWS V14.00,2013-12-05 15:26:00,
2013-12-05 10:32:00,34.9,27.8,29.66,SSW,209,8.1,8.1,75,0.00,,,0.00,VWS V14.00,2013-12-05 15:32:00,
2013-12-05 10:37:00,34.9,27.8,29.66,SSW,207,11.0,11.0,75,0.00,,,0.00,VWS V14.00,2013-12-05 15:37:00,
2013-12-05 10:43:00,34.7,27.3,29.66,SW,230,10.5,10.5,74,0.00,,,0.00,VWS V14.00,2013-12-05 15:43:00,
2013-12-05 10:48:00,34.5,26.4,29.66,SW,218,6.3,11.4,72,0.00,,,0.00,VWS V14.00,2013-12-05 15:48:00,
2013-12-05 10:54:00,34.5,26.1,29.66,WSW,256,7.6,10.1,71,0.00,,,0.00,VWS V14.00,2013-12-05 15:54:00,
2013-12-05 10:59:00,34.5,26.1,29.69,WNW,284,10.1,10.5,71,0.00,,,0.00,VWS V14.00,2013-12-05 15:59:00,
2013-12-05 11:04:00,34.3,25.9,29.69,West,262,6.7,8.7,71,0.00,,,0.00,VWS V14.00,2013-12-05 16:04:00,
2013-12-05 11:09:00,34.3,25.9,29.69,SW,226,8.1,8.1,71,0.00,,,0.00,VWS V14.00,2013-12-05 16:09:00,
2013-12-05 11:14:00,34.2,25.1,29.69,WSW,253,5.8,7.6,69,0.00,,,0.00,VWS V14.00,2013-12-05 16:14:00,
2013-12-05 11:19:00,34.0,25.2,29.69,SW,230,3.6,3.6,70,0.00,,,0.00,VWS V14.00,2013-12-05 16:19:00,
2013-12-05 11:24:00,34.0,25.2,29.69,WSW,240,5.4,9.2,70,0.00,,,0.00,VWS V14.00,2013-12-05 16:24:00,
2013-12-05 11:29:00,34.0,25.6,29.69,WSW,252,3.6,10.5,71,0.00,,,0.00,VWS V14.00,2013-12-05 16:29:00,
2013-12-05 11:35:00,34.0,25.2,29.69,West,268,10.1,10.1,70,0.00,,,0.00,VWS V14.00,2013-12-05 16:35:00,
2013-12-05 11:40:00,34.0,25.2,29.69,WSW,241,3.6,6.3,70,0.00,,,0.00,VWS V14.00,2013-12-05 16:40:00,
2013-12-05 11:46:00,34.0,24.9,29.69,SW,229,6.3,6.3,69,0.00,,,0.00,VWS V14.00,2013-12-05 16:46:00,
2013-12-05 11:52:00,34.0,25.2,29.69,SSW,212,8.1,12.8,70,0.00,,,0.00,VWS V14.00,2013-12-05 16:52:00,
2013-12-05 11:57:00,34.2,25.4,29.69,SSE,165,7.6,12.3,70,0.00,,,0.00,VWS V14.00,2013-12-05 16:57:00,
2013-12-05 12:02:00,34.2,25.4,29.69,WSW,239,6.3,6.7,70,0.00,,,0.00,VWS V14.00,2013-12-05 17:02:00,
2013-12-05 12:07:00,34.0,24.9,29.69,WSW,238,4.0,10.1,69,0.00,,,0.00,VWS V14.00,2013-12-05 17:07:00,
2013-12-05 12:13:00,34.0,24.9,29.69,SSW,201,8.1,15.0,69,0.00,,,0.00,VWS V14.00,2013-12-05 17:13:00,
2013-12-05 12:18:00,33.8,24.4,29.69,SW,222,10.1,15.4,68,0.00,,,0.00,VWS V14.00,2013-12-05 17:18:00,
2013-12-05 12:24:00,33.8,24.0,29.69,WSW,247,5.8,8.7,67,0.00,,,0.00,VWS V14.00,2013-12-05 17:24:00,
2013-12-05 12:29:00,33.8,24.4,29.69,SW,227,4.0,5.4,68,0.00,,,0.00,VWS V14.00,2013-12-05 17:29:00,
2013-12-05 12:34:00,33.8,24.4,29.69,SW,226,3.1,8.7,68,0.00,,,0.00,VWS V14.00,2013-12-05 17:34:00,
2013-12-05 12:40:00,34.2,24.4,29.69,WSW,242,12.3,12.3,67,0.00,,,0.00,VWS V14.00,2013-12-05 17:40:00,
2013-12-05 12:45:00,34.2,24.0,29.69,WSW,249,10.1,11.0,66,0.00,,,0.00,VWS V14.00,2013-12-05 17:45:00,
2013-12-05 12:50:00,34.0,23.5,29.69,WNW,303,3.6,6.3,65,0.00,,,0.00,VWS V14.00,2013-12-05 17:50:00,
2013-12-05 12:55:00,34.0,23.1,29.72,West,276,3.6,8.7,64,0.00,,,0.00,VWS V14.00,2013-12-05 17:55:00,
2013-12-05 13:00:00,34.0,23.5,29.72,WSW,257,5.8,8.1,65,0.00,,,0.00,VWS V14.00,2013-12-05 18:00:00,
2013-12-05 13:06:00,34.0,23.5,29.72,SSW,202,6.3,8.3,65,0.00,,,0.00,VWS V14.00,2013-12-05 18:06:00,
2013-12-05 13:12:00,34.0,23.5,29.72,SW,217,7.6,7.6,65,0.00,,,0.00,VWS V14.00,2013-12-05 18:12:00,
2013-12-05 13:18:00,34.0,23.5,29.72,NW,314,8.3,8.3,65,0.00,,,0.00,VWS V14.00,2013-12-05 18:18:00,
2013-12-05 13:23:00,34.3,23.1,29.72,WSW,258,5.8,8.1,63,0.00,,,0.00,VWS V14.00,2013-12-05 18:23:00,
2013-12-05 13:28:00,34.3,23.1,29.72,West,269,10.1,10.1,63,0.00,,,0.00,VWS V14.00,2013-12-05 18:28:00,
2013-12-05 13:34:00,34.2,22.5,29.72,West,279,8.1,8.3,62,0.00,,,0.00,VWS V14.00,2013-12-05 18:34:00,
2013-12-05 13:39:00,34.2,22.5,29.72,SW,226,6.3,9.2,62,0.00,,,0.00,VWS V14.00,2013-12-05 18:39:00,
2013-12-05 13:44:00,34.2,22.1,29.72,SSW,202,11.4,11.4,61,0.00,,,0.00,VWS V14.00,2013-12-05 18:44:00,
2013-12-05 13:49:00,34.2,22.5,29.72,West,278,5.4,6.3,62,0.00,,,0.00,VWS V14.00,2013-12-05 18:49:00,
2013-12-05 13:54:00,34.2,22.5,29.72,North,357,5.8,11.0,62,0.00,,,0.00,VWS V14.00,2013-12-05 18:54:00,
2013-12-05 14:00:00,33.8,21.8,29.72,WSW,252,3.6,7.6,61,0.00,,,0.00,VWS V14.00,2013-12-05 19:00:00,
2013-12-05 14:06:00,33.8,22.5,29.72,WSW,248,4.0,5.8,63,0.00,,,0.00,VWS V14.00,2013-12-05 19:06:00,
2013-12-05 14:11:00,33.6,22.4,29.72,WSW,241,7.6,9.6,63,0.00,,,0.00,VWS V14.00,2013-12-05 19:11:00,
2013-12-05 14:16:00,33.6,22.4,29.72,NNW,343,4.9,4.9,63,0.00,,,0.00,VWS V14.00,2013-12-05 19:16:00,
2013-12-05 14:21:00,33.4,22.6,29.72,SSW,213,5.4,6.3,64,0.00,,,0.00,VWS V14.00,2013-12-05 19:21:00,
2013-12-05 14:27:00,33.3,22.0,29.75,SW,217,9.6,9.6,63,0.00,,,0.00,VWS V14.00,2013-12-05 19:27:00,
2013-12-05 14:33:00,33.3,21.3,29.75,NW,307,11.4,11.4,61,0.00,,,0.00,VWS V14.00,2013-12-05 19:33:00,
2013-12-05 14:39:00,33.3,21.3,29.75,NNW,339,4.0,7.6,61,0.00,,,0.00,VWS V14.00,2013-12-05 19:39:00,
2013-12-05 14:44:00,33.3,21.3,29.75,NNW,333,7.6,8.7,61,0.00,,,0.00,VWS V14.00,2013-12-05 19:44:00,
2013-12-05 14:49:00,33.3,21.7,29.75,West,261,3.6,5.8,62,0.00,,,0.00,VWS V14.00,2013-12-05 19:49:00,
2013-12-05 14:55:00,33.6,22.0,29.75,West,260,6.3,10.5,62,0.00,,,0.00,VWS V14.00,2013-12-05 19:55:00,
2013-12-05 15:00:00,33.3,20.9,29.75,WSW,247,3.6,12.3,60,0.00,,,0.00,VWS V14.00,2013-12-05 20:00:00,
2013-12-05 15:05:00,33.1,19.9,29.75,West,259,7.6,11.0,58,0.00,,,0.00,VWS V14.00,2013-12-05 20:05:00,
2013-12-05 15:10:00,32.7,19.6,29.78,NW,313,8.1,8.1,58,0.00,,,0.00,VWS V14.00,2013-12-05 20:10:00,
2013-12-05 15:16:00,32.4,19.6,29.78,NNW,327,6.3,7.6,59,0.00,,,0.00,VWS V14.00,2013-12-05 20:16:00,
2013-12-05 15:22:00,32.2,19.9,29.78,North,350,5.8,7.6,60,0.00,,,0.00,VWS V14.00,2013-12-05 20:22:00,
2013-12-05 15:27:00,32.2,20.3,29.78,NNW,329,3.6,8.7,61,0.00,,,0.00,VWS V14.00,2013-12-05 20:27:00,
2013-12-05 15:32:00,32.2,20.6,29.78,SW,218,5.4,8.1,62,0.00,,,0.00,VWS V14.00,2013-12-05 20:32:00,
2013-12-05 15:37:00,32.2,20.3,29.78,WSW,238,5.8,5.8,61,0.00,,,0.00,VWS V14.00,2013-12-05 20:37:00,
2013-12-05 15:42:00,32.2,20.3,29.78,SW,217,3.1,10.5,61,0.00,,,0.00,VWS V14.00,2013-12-05 20:42:00,
2013-12-05 15:47:00,32.0,19.3,29.78,SSW,207,6.3,10.5,59,0.00,,,0.00,VWS V14.00,2013-12-05 20:47:00,
2013-12-05 15:52:00,31.8,18.7,29.78,WNW,283,8.1,8.1,58,0.00,,,0.00,VWS V14.00,2013-12-05 20:52:00,
2013-12-05 15:57:00,31.5,18.4,29.78,West,263,5.4,5.4,58,0.00,,,0.00,VWS V14.00,2013-12-05 20:57:00,
2013-12-05 16:03:00,31.3,18.6,29.78,NW,311,6.3,6.3,59,0.00,,,0.00,VWS V14.00,2013-12-05 21:03:00,
2013-12-05 16:09:00,31.3,19.0,29.78,NW,310,6.3,6.3,60,0.00,,,0.00,VWS V14.00,2013-12-05 21:09:00,
2013-12-05 16:14:00,31.3,19.8,29.78,SW,223,4.9,10.5,62,0.00,,,0.00,VWS V14.00,2013-12-05 21:14:00,
2013-12-05 16:19:00,31.3,19.8,29.78,WSW,247,6.3,6.3,62,0.00,,,0.00,VWS V14.00,2013-12-05 21:19:00,
2013-12-05 16:25:00,31.3,20.2,29.81,SSW,213,4.9,5.8,63,0.00,,,0.00,VWS V14.00,2013-12-05 21:25:00,
2013-12-05 16:30:00,31.1,20.0,29.81,SW,227,5.8,5.8,63,0.00,,,0.00,VWS V14.00,2013-12-05 21:30:00,
2013-12-05 16:35:00,31.1,20.0,29.81,SSW,211,6.3,6.3,63,0.00,,,0.00,VWS V14.00,2013-12-05 21:35:00,
2013-12-05 16:40:00,31.1,20.0,29.84,SW,223,8.7,8.7,63,0.00,,,0.00,VWS V14.00,2013-12-05 21:40:00,
2013-12-05 16:46:00,30.9,19.5,29.84,NNW,341,5.8,5.8,62,0.00,,,0.00,VWS V14.00,2013-12-05 21:46:00,
2013-12-05 16:51:00,30.7,19.3,29.84,WSW,249,6.3,6.3,62,0.00,,,0.00,VWS V14.00,2013-12-05 21:51:00,
2013-12-05 16:57:00,30.6,19.1,29.81,West,270,5.4,6.3,62,0.00,,,0.00,VWS V14.00,2013-12-05 21:57:00,
2013-12-05 17:03:00,30.4,18.9,29.81,West,278,4.0,6.7,62,0.00,,,0.00,VWS V14.00,2013-12-05 22:03:00,
2013-12-05 17:09:00,30.2,18.8,29.81,WSW,246,4.0,4.0,62,0.00,,,0.00,VWS V14.00,2013-12-05 22:09:00,
2013-12-05 17:15:00,30.2,18.4,29.81,WNW,295,0.0,5.4,61,0.00,,,0.00,VWS V14.00,2013-12-05 22:15:00,
2013-12-05 17:20:00,30.0,18.2,29.81,SW,225,3.1,7.6,61,0.00,,,0.00,VWS V14.00,2013-12-05 22:20:00,
2013-12-05 17:25:00,29.8,18.0,29.81,SW,217,6.3,6.3,61,0.00,,,0.00,VWS V14.00,2013-12-05 22:25:00,
2013-12-05 17:30:00,29.8,18.4,29.81,SW,229,4.0,4.0,62,0.00,,,0.00,VWS V14.00,2013-12-05 22:30:00,
2013-12-05 17:36:00,29.7,18.2,29.81,WSW,252,2.7,2.7,62,0.00,,,0.00,VWS V14.00,2013-12-05 22:36:00,
2013-12-05 17:41:00,29.7,18.6,29.84,WNW,289,4.0,4.0,63,0.00,,,0.00,VWS V14.00,2013-12-05 22:41:00,
2013-12-05 17:47:00,29.7,18.6,29.84,WNW,288,0.0,0.0,63,0.00,,,0.00,VWS V14.00,2013-12-05 22:47:00,
2013-12-05 17:52:00,29.7,19.0,29.84,WSW,246,3.6,4.0,64,0.00,,,0.00,VWS V14.00,2013-12-05 22:52:00,
2013-12-05 17:57:00,29.7,19.0,29.81,SW,227,0.0,0.0,64,0.00,,,0.00,VWS V14.00,2013-12-05 22:57:00,
2013-12-05 18:02:00,29.7,19.4,29.81,West,259,2.7,2.7,65,0.00,,,0.00,VWS V14.00,2013-12-05 23:02:00,
2013-12-05 18:07:00,29.7,19.7,29.81,West,259,2.7,2.7,66,0.00,,,0.00,VWS V14.00,2013-12-05 23:07:00,
2013-12-05 18:12:00,29.7,19.7,29.84,West,270,2.7,2.7,66,0.00,,,0.00,VWS V14.00,2013-12-05 23:12:00,
2013-12-05 18:18:00,29.7,20.1,29.84,West,273,3.1,3.1,67,0.00,,,0.00,VWS V14.00,2013-12-05 23:18:00,
2013-12-05 18:23:00,29.7,20.1,29.84,WSW,252,4.0,4.0,67,0.00,,,0.00,VWS V14.00,2013-12-05 23:23:00,
2013-12-05 18:28:00,29.5,19.9,29.81,WSW,251,2.2,2.2,67,0.00,,,0.00,VWS V14.00,2013-12-05 23:28:00,
2013-12-05 18:34:00,29.5,19.5,29.81,WSW,243,3.6,3.6,66,0.00,,,0.00,VWS V14.00,2013-12-05 23:34:00,
2013-12-05 18:40:00,29.5,19.2,29.84,SW,218,3.1,4.9,65,0.00,,,0.00,VWS V14.00,2013-12-05 23:40:00,
2013-12-05 18:46:00,29.5,18.8,29.84,West,278,3.1,3.6,64,0.00,,,0.00,VWS V14.00,2013-12-05 23:46:00,
2013-12-05 18:52:00,29.5,18.8,29.84,West,270,3.6,3.6,64,0.00,,,0.00,VWS V14.00,2013-12-05 23:52:00,
2013-12-05 18:57:00,29.5,18.8,29.84,West,260,4.9,4.9,64,0.00,,,0.00,VWS V14.00,2013-12-05 23:57:00,
2013-12-05 19:02:00,29.5,19.2,29.84,WSW,255,8.1,8.1,65,0.00,,,0.00,VWS V14.00,2013-12-06 00:02:00,
2013-12-05 19:07:00,29.5,19.2,29.84,SSW,207,5.4,5.4,65,0.00,,,0.00,VWS V14.00,2013-12-06 00:07:00,
2013-12-05 19:12:00,29.5,19.2,29.87,WNW,297,0.0,3.6,65,0.00,,,0.00,VWS V14.00,2013-12-06 00:12:00,
2013-12-05 19:17:00,29.5,19.2,29.87,West,266,4.9,4.9,65,0.00,,,0.00,VWS V14.00,2013-12-06 00:17:00,
2013-12-05 19:22:00,29.5,19.2,29.87,WSW,248,5.4,6.3,65,0.00,,,0.00,VWS V14.00,2013-12-06 00:22:00,
2013-12-05 19:28:00,29.5,19.5,29.87,West,261,3.6,3.6,66,0.00,,,0.00,VWS V14.00,2013-12-06 00:28:00,
2013-12-05 19:33:00,29.5,19.5,29.87,WSW,237,4.0,4.0,66,0.00,,,0.00,VWS V14.00,2013-12-06 00:33:00,
2013-12-05 19:38:00,29.7,19.7,29.87,NW,325,3.1,3.1,66,0.00,,,0.00,VWS V14.00,2013-12-06 00:38:00,
2013-12-05 19:43:00,29.7,19.7,29.90,WSW,242,4.9,4.9,66,0.00,,,0.00,VWS V14.00,2013-12-06 00:43:00,
2013-12-05 19:49:00,29.7,19.7,29.90,NNW,343,0.0,0.0,66,0.00,,,0.00,VWS V14.00,2013-12-06 00:49:00,
2013-12-05 19:54:00,29.7,19.7,29.90,West,268,3.1,3.1,66,0.00,,,0.00,VWS V14.00,2013-12-06 00:54:00,
2013-12-05 20:00:00,29.7,19.4,29.90,NW,315,3.1,5.4,65,0.00,,,0.00,VWS V14.00,2013-12-06 01:00:00,
2013-12-05 20:06:00,29.7,19.7,29.90,SW,224,3.1,3.1,66,0.00,,,0.00,VWS V14.00,2013-12-06 01:06:00,
2013-12-05 20:12:00,29.7,19.4,29.90,WSW,251,3.6,7.6,65,0.00,,,0.00,VWS V14.00,2013-12-06 01:12:00,
2013-12-05 20:17:00,29.7,19.4,29.90,West,278,3.1,3.1,65,0.00,,,0.00,VWS V14.00,2013-12-06 01:17:00,
2013-12-05 20:22:00,29.7,19.0,29.90,West,262,2.7,3.1,64,0.00,,,0.00,VWS V14.00,2013-12-06 01:22:00,
2013-12-05 20:28:00,29.7,19.0,29.90,SW,232,5.4,6.3,64,0.00,,,0.00,VWS V14.00,2013-12-06 01:28:00,
2013-12-05 20:33:00,29.7,19.0,29.90,WSW,247,4.0,4.0,64,0.00,,,0.00,VWS V14.00,2013-12-06 01:33:00,
2013-12-05 20:39:00,29.5,18.8,29.90,NW,324,2.7,5.8,64,0.00,,,0.00,VWS V14.00,2013-12-06 01:39:00,
2013-12-05 20:45:00,29.5,18.8,29.90,NW,313,4.0,4.0,64,0.00,,,0.00,VWS V14.00,2013-12-06 01:45:00,
2013-12-05 20:51:00,29.5,18.8,29.90,WNW,285,3.1,6.3,64,0.00,,,0.00,VWS V14.00,2013-12-06 01:51:00,
2013-12-05 20:56:00,29.5,18.8,29.90,NW,317,4.0,5.8,64,0.00,,,0.00,VWS V14.00,2013-12-06 01:56:00,
2013-12-05 21:02:00,29.5,18.8,29.90,WNW,299,7.6,7.6,64,0.00,,,0.00,VWS V14.00,2013-12-06 02:02:00,
2013-12-05 21:07:00,29.3,18.6,29.90,West,273,3.6,8.3,64,0.00,,,0.00,VWS V14.00,2013-12-06 02:07:00,
2013-12-05 21:13:00,29.3,18.6,29.90,WSW,252,3.6,3.6,64,0.00,,,0.00,VWS V14.00,2013-12-06 02:13:00,
2013-12-05 21:18:00,29.3,18.6,29.90,West,276,3.6,4.0,64,0.00,,,0.00,VWS V14.00,2013-12-06 02:18:00,
2013-12-05 21:24:00,29.1,18.5,29.90,WNW,302,3.1,4.9,64,0.00,,,0.00,VWS V14.00,2013-12-06 02:24:00,
2013-12-05 21:30:00,29.1,18.5,29.90,WNW,287,4.9,4.9,64,0.00,,,0.00,VWS V14.00,2013-12-06 02:30:00,
2013-12-05 21:35:00,29.1,18.5,29.90,West,264,4.9,5.8,64,0.00,,,0.00,VWS V14.00,2013-12-06 02:35:00,
2013-12-05 21:40:00,29.1,18.5,29.90,West,270,2.7,3.1,64,0.00,,,0.00,VWS V14.00,2013-12-06 02:40:00,
2013-12-05 21:45:00,29.1,18.8,29.93,West,273,2.7,6.3,65,0.00,,,0.00,VWS V14.00,2013-12-06 02:45:00,
2013-12-05 21:51:00,28.9,18.3,29.93,WSW,250,6.3,6.3,64,0.00,,,0.00,VWS V14.00,2013-12-06 02:51:00,
2013-12-05 21:57:00,28.9,18.3,29.90,WNW,298,3.1,5.4,64,0.00,,,0.00,VWS V14.00,2013-12-06 02:57:00,
2013-12-05 22:02:00,28.9,18.3,29.90,NNW,330,4.9,8.1,64,0.00,,,0.00,VWS V14.00,2013-12-06 03:02:00,
2013-12-05 22:07:00,28.9,17.9,29.90,West,269,3.6,3.6,63,0.00,,,0.00,VWS V14.00,2013-12-06 03:07:00,
2013-12-05 22:13:00,28.8,17.8,29.93,NW,316,5.4,5.4,63,0.00,,,0.00,VWS V14.00,2013-12-06 03:13:00,
2013-12-05 22:18:00,28.8,17.8,29.93,NNW,335,2.7,4.9,63,0.00,,,0.00,VWS V14.00,2013-12-06 03:18:00,
2013-12-05 22:23:00,28.8,17.8,29.93,NW,323,2.7,2.7,63,0.00,,,0.00,VWS V14.00,2013-12-06 03:23:00,
2013-12-05 22:29:00,28.8,17.8,29.93,WSW,245,6.3,6.3,63,0.00,,,0.00,VWS V14.00,2013-12-06 03:29:00,
2013-12-05 22:34:00,28.8,17.8,29.93,NW,313,5.4,7.6,63,0.00,,,0.00,VWS V14.00,2013-12-06 03:34:00,
2013-12-05 22:40:00,28.6,17.6,29.93,WSW,250,2.2,2.2,63,0.00,,,0.00,VWS V14.00,2013-12-06 03:40:00,
2013-12-05 22:46:00,28.6,17.6,29.93,North,2,3.6,4.0,63,0.00,,,0.00,VWS V14.00,2013-12-06 03:46:00,
2013-12-05 22:51:00,28.6,18.0,29.93,WSW,254,5.8,5.8,64,0.00,,,0.00,VWS V14.00,2013-12-06 03:51:00,
2013-12-05 22:56:00,28.4,17.8,29.93,NNW,337,0.0,3.1,64,0.00,,,0.00,VWS V14.00,2013-12-06 03:56:00,
2013-12-05 23:01:00,28.4,17.8,29.93,WNW,292,5.4,5.4,64,0.00,,,0.00,VWS V14.00,2013-12-06 04:01:00,
2013-12-05 23:06:00,28.2,17.3,29.93,North,353,7.6,7.6,63,0.00,,,0.00,VWS V14.00,2013-12-06 04:06:00,
2013-12-05 23:11:00,28.2,17.3,29.93,NNW,327,4.9,4.9,63,0.00,,,0.00,VWS V14.00,2013-12-06 04:11:00,
2013-12-05 23:17:00,28.2,17.3,29.93,NNW,341,9.2,9.2,63,0.00,,,0.00,VWS V14.00,2013-12-06 04:17:00,
2013-12-05 23:23:00,28.0,17.1,29.93,North,2,7.6,7.6,63,0.00,,,0.00,VWS V14.00,2013-12-06 04:23:00,
2013-12-05 23:29:00,27.9,16.9,29.93,NW,318,3.1,5.8,63,0.00,,,0.00,VWS V14.00,2013-12-06 04:29:00,
2013-12-05 23:34:00,27.9,16.9,29.93,NW,305,8.1,8.1,63,0.00,,,0.00,VWS V14.00,2013-12-06 04:34:00,
2013-12-05 23:40:00,27.7,16.7,29.93,North,8,4.0,5.8,63,0.00,,,0.00,VWS V14.00,2013-12-06 04:40:00,
2013-12-05 23:45:00,27.5,16.6,29.96,North,0,5.4,5.8,63,0.00,,,0.00,VWS V14.00,2013-12-06 04:45:00,
2013-12-05 23:50:00,27.5,16.6,29.96,NNW,332,8.7,8.7,63,0.00,,,0.00,VWS V14.00,2013-12-06 04:50:00,
2013-12-05 23:56:00,27.3,16.4,29.96,WNW,302,5.4,5.4,63,0.00,,,0.00,VWS V14.00,2013-12-06 04:56:00,